STARLINK-33828, 63493

Orbit data source: Space-Track

STARLINK-33828, 63493 is a payload satellite owned by SpaceX/Seattle (US) in LEO that was launched on Mon, 07 Apr 2025 UTC via an FALCON 9 launch vehicle from the Air Force Western Test Range (AFWTR). Payload-class satellites include a variety of spacecraft equipped with specific instruments for various scientific and technological missions. These include communications satellites like Starlink; space stations such as the ISS; scientific satellites like the Hubble; Earth observation satellites from companies like Planet Labs, Umbra, and HawkEye 360; GPS; miniature CubeSats for education and research; and military/defense satellites.

Loading next visibility...
Identifier
63493, 2025-071A
Orbit
LEO
Last TLE update
11 hours ago
Origin
Manufacturer
SpaceX/Seattle
Mission
Operational Commercial Communications
Bus & Motor
STARLINK V2MO, Unknown motor
Mass
575 kg wet, ~530 kg dry
Launch date (UTC)
2025-04-07 (1 month ago)
Launch vehicle
FALCON 9
Launch site
Air Force Western Test Range (AFWTR)
Object type
Payload
Rocket body
Debris
Shape & HBR
Box + 1 Pan, 29 m
Radar Cross Section
41.120 m², Large (>1 m²)

Expand to show TLE details & history

TLE from 11 hours ago
0 STARLINK-33828
1 63493U 25071A   25128.91668981  .00042037  00000-0  10560-2 0  9996
2 63493  53.1588 120.2922 0001020  94.1596 178.5386 15.39594311  6029
Epoch: 2025-05-08T22:00Z
Definitive object data (Epoch: 2025-05-08T22:00:01.999Z)
Latitude
-53.22708°
Longitude
-162.21247°
Altitude
466.511 km
Speed
7.632 km/s
True Right ascension
02h 19m 06s
True Declination
-53° 03' 18"
Sunlit
Object was in daylight at TLE epoch
Visualization TLE readout
Latitude
-15.69989°
Longitude
113.31267°
Altitude
451.6 km
Speed
7.642 km/s
Apparent Right ascension
23h 45m 06s
Apparent Declination
-45° 17' 04"
Sunlit
Object is in daylight
Visualization observer readout
Local Sidereal Time
16:44:33
Azimuth
122.166° SE
Elevation
-36.646°
Doppler factor
1
Orbital elements
Apogee altitude
448.262 km
Perigee altitude
446.869 km
Semi-major axis
6,825.703 km
Eccentricity
0.000102
Inclination
53.1588°
RAAN
120.2922°
Arg. of periapsis
94.1596°
True anomaly
178.5389°
Mean anomaly
178.5386°
Eccentric anomaly
178.53875°
Mean motion
3.84877 °/min
BSTAR
0.001056
Orbital period
93.54 mins
Loading maneuver chart data...
Loading SW <> Apogee altitude chart data...
Loading historical data...
Loading historical data...
Loading historical data...
Loading historical data...
Loading historical data...
Loading historical data...
Loading historical data...

STARLINK-33828 Visibility forecast

Observer location: undefined°, undefined°

Span
Click to sort rows by Start time (UTC) header in descending order
Start Az.
Max El. time (UTC)
Max El. Az.
Max El.
End time (UTC)
End Az.
5 mins2025-05-09 09:49:22.675Z282.174° WNW2025-05-09 09:51:22.675Z233.042° WSW27.566°2025-05-09 09:54:22.675Z165.604° S
5 mins2025-05-10 02:38:22.675Z263.288° W2025-05-10 02:40:22.675Z313.415° NW31.915°2025-05-10 02:43:22.675Z33.565° NE
5 mins2025-05-10 07:33:22.675Z338.641° N2025-05-10 07:35:22.675Z20.325° NNE21.921°2025-05-10 07:38:22.675Z82.448° E
|